EW8073 Weather Reports


time (UTC)temp
C
wind
direction
speed
KPH
gust
KPH
rain 1hr
cm
rain 24hr
cm
rain mn
cm
humidity
%
barometer
mb
20260502164018 16 128 0.0 6.4 0.00 0.00 0.00 23 1020.6
20260502163512 16 145 0.0 3.2 0.00 0.00 0.00 24 1020.6
20260502163008 16 250 0.0 3.2 0.00 0.00 0.00 26 1020.6
20260502162501 15 250 0.0 0.0 0.00 0.00 0.00 26 1020.6
20260502161954 15 251 0.0 0.0 0.00 0.00 0.00 25 1020.6
20260502161448 15 249 0.0 0.0 0.00 0.00 0.00 26 1020.6
20260502160942 15 249 0.0 3.2 0.00 0.00 0.00 27 1020.7
20260502160438 15 249 0.0 3.2 0.00 0.00 0.00 28 1020.7
20260502151842 12 245 0.0 1.6 0.00 0.00 0.00 33 1021.0
20260502151337 12 244 0.0 1.6 0.00 0.00 0.00 34 1021.1
20260502150326 12 244 0.0 0.0 0.00 0.00 0.00 35 1021.1
20260502130607 2 0 0.0 0.0 0.00 0.00 0.00 62 1021.3
20260502123530 2 93 0.0 0.0 0.00 0.00 0.00 60 1021.1
20260502123033 2 93 0.0 0.0 0.00 0.00 0.00 60 1021.0
20260502122519 2 93 0.0 0.0 0.00 0.00 0.00 60 1021.0
20260502121511 2 93 0.0 0.0 0.00 0.00 0.00 59 1020.8
20260502121011 2 93 0.0 0.0 0.00 0.00 0.00 59 1020.8
20260502120510 2 93 0.0 0.0 0.00 0.00 0.00 59 1020.8
20260502115006 2 93 0.0 0.0 0.00 0.00 0.00 58 1020.8
20260502112503 3 93 0.0 0.0 0.00 0.00 0.00 57 1020.6
20260502112002 3 93 0.0 0.0 0.00 0.00 0.00 56 1020.6
20260502111458 3 93 0.0 0.0 0.00 0.00 0.00 56 1020.7
20260502110959 3 93 0.0 0.0 0.00 0.00 0.00 56 1020.7
20260502105958 3 93 0.0 0.0 0.00 0.00 0.00 56 1020.6
20260502105459 3 93 0.0 0.0 0.00 0.00 0.00 56 1020.7
20260502104957 3 93 0.0 0.0 0.00 0.00 0.00 56 1020.7
20260502104459 3 93 0.0 0.0 0.00 0.00 0.00 56 1020.6
20260502103955 3 93 0.0 0.0 0.00 0.00 0.00 56 1020.6
20260502103454 4 93 0.0 0.0 0.00 0.00 0.00 56 1020.7
20260502102952 4 93 0.0 0.0 0.00 0.00 0.00 56 1020.7
20260502102451 4 93 0.0 0.0 0.00 0.00 0.00 56 1020.7
20260502101949 4 93 0.0 0.0 0.00 0.00 0.00 56 1020.7
20260502100948 4 93 0.0 0.0 0.00 0.00 0.00 55 1020.6
20260502100447 4 93 0.0 0.0 0.00 0.00 0.00 55 1020.4
20260502091440 5 92 0.0 0.0 0.00 0.00 0.00 54 1020.1
20260502090942 5 91 0.0 0.0 0.00 0.00 0.00 54 1020.1
20260502090440 5 91 0.0 0.0 0.00 0.00 0.00 54 1020.0
20260502071426 6 90 0.0 0.0 0.00 0.00 0.00 40 1020.2
20260502070925 7 90 0.0 0.0 0.00 0.00 0.00 39 1020.3
20260502070422 7 90 0.0 0.0 0.00 0.00 0.00 39 1020.3
20260502065422 7 90 0.0 0.0 0.00 0.00 0.00 38 1020.4
20260502064920 7 90 0.0 0.0 0.00 0.00 0.00 38 1020.4
20260502064422 7 90 0.0 0.0 0.00 0.00 0.00 37 1020.4
20260502063415 8 90 0.0 0.0 0.00 0.00 0.00 37 1020.4
20260502062407 8 90 0.0 0.0 0.00 0.00 0.00 37 1020.4
20260502061903 8 90 0.0 0.0 0.00 0.00 0.00 37 1020.6
20260502061355 8 90 0.0 0.0 0.00 0.00 0.00 37 1020.4
20260502060850 8 90 0.0 0.0 0.00 0.00 0.00 36 1020.6
20260502060351 8 90 0.0 0.0 0.00 0.00 0.00 36 1020.4
20260502055849 8 90 0.0 0.0 0.00 0.00 0.00 36 1020.4
20260502055347 8 90 0.0 0.0 0.00 0.00 0.00 36 1020.4
20260502054847 8 90 0.0 0.0 0.00 0.00 0.00 36 1020.3
20260502054346 8 90 0.0 1.6 0.00 0.00 0.00 37 1020.3
20260502053846 8 84 0.0 1.6 0.00 0.00 0.00 36 1020.2
20260502053348 8 84 0.0 0.0 0.00 0.00 0.00 36 1020.2
20260502052844 8 84 0.0 0.0 0.00 0.00 0.00 35 1020.1
20260502052343 8 84 0.0 0.0 0.00 0.00 0.00 34 1020.1
20260502051843 8 84 0.0 0.0 0.00 0.00 0.00 34 1020.1
20260502051342 8 84 0.0 0.0 0.00 0.00 0.00 34 1020.1
20260502050841 8 84 0.0 0.0 0.00 0.00 0.00 34 1020.0
20260502050342 8 84 0.0 0.0 0.00 0.00 0.00 33 1020.1
20260502045840 8 84 0.0 0.0 0.00 0.00 0.00 34 1020.0
20260502045341 9 84 0.0 0.0 0.00 0.00 0.00 33 1020.1
20260502044341 9 84 0.0 0.0 0.00 0.00 0.00 33 1020.0
20260502043838 9 84 0.0 0.0 0.00 0.00 0.00 32 1020.0
20260502043340 9 84 0.0 0.0 0.00 0.00 0.00 32 1020.0
20260502042838 9 84 0.0 0.0 0.00 0.00 0.00 32 1019.9
20260502042338 10 84 0.0 0.0 0.00 0.00 0.00 32 1019.9
20260502041838 10 84 0.0 0.0 0.00 0.00 0.00 32 1019.9
20260502040335 10 84 0.0 0.0 0.00 0.00 0.00 31 1019.7
20260502035835 10 84 0.0 0.0 0.00 0.00 0.00 30 1019.6
20260502035334 10 84 0.0 0.0 0.00 0.00 0.00 30 1019.6
20260502034834 10 84 0.0 0.0 0.00 0.00 0.00 30 1019.6
20260502034334 10 84 0.0 0.0 0.00 0.00 0.00 30 1019.5
20260502033836 10 84 0.0 0.0 0.00 0.00 0.00 29 1019.4
20260502033335 10 84 0.0 0.0 0.00 0.00 0.00 29 1019.3
20260502032834 11 84 0.0 0.0 0.00 0.00 0.00 29 1019.3
20260502032336 11 84 0.0 0.0 0.00 0.00 0.00 28 1019.2
20260502031834 11 84 0.0 0.0 0.00 0.00 0.00 28 1019.0
20260502031330 11 84 0.0 0.0 0.00 0.00 0.00 27 1019.0
20260502030830 11 84 0.0 0.0 0.00 0.00 0.00 27 1018.9
20260502025832 12 84 0.0 0.0 0.00 0.00 0.00 26 1018.8
20260502025331 12 84 0.0 0.0 0.00 0.00 0.00 26 1018.7
20260502024830 12 84 0.0 0.0 0.00 0.00 0.00 26 1018.6
20260502024327 12 84 0.0 0.0 0.00 0.00 0.00 26 1018.5
20260502023826 13 86 0.0 0.0 0.00 0.00 0.00 25 1018.5
20260502023324 13 89 0.0 0.0 0.00 0.00 0.00 25 1018.3
20260502022825 13 86 0.0 0.0 0.00 0.00 0.00 24 1018.3
20260502022322 13 0 0.0 0.0 0.00 0.00 0.00 24 1018.2
20260502021822 13 0 0.0 0.0 0.00 0.00 0.00 24 1018.1
20260502021322 14 0 0.0 0.0 0.00 0.00 0.00 23 1018.1
20260502020820 14 86 0.0 0.0 0.00 0.00 0.00 23 1018.0
20260502015819 15 86 0.0 0.0 0.00 0.00 0.00 23 1017.9
20260502015319 15 0 0.0 0.0 0.00 0.00 0.00 23 1017.9
20260502014820 15 86 0.0 0.0 0.00 0.00 0.00 22 1017.9
20260502014315 15 86 0.0 0.0 0.00 0.00 0.00 22 1017.8
20260502013807 15 84 0.0 0.0 0.00 0.00 0.00 22 1017.8
20260502012754 15 87 0.0 4.8 0.00 0.00 0.00 21 1017.6
20260502011742 16 86 0.0 0.0 0.00 0.00 0.00 21 1017.4
20260502011236 16 86 0.0 1.6 0.00 0.00 0.00 20 1017.4
20260502010731 16 86 0.0 3.2 0.00 0.00 0.00 20 1017.3
20260502010225 16 86 0.0 3.2 0.00 0.00 0.00 20 1017.3
20260502005719 16 88 0.0 0.0 0.00 0.00 0.00 20 1017.3
20260502005212 16 88 0.0 4.8 0.00 0.00 0.00 20 1017.2
20260502004200 16 53 0.0 1.6 0.00 0.00 0.00 19 1017.2
20260502003148 16 54 0.0 0.0 0.00 0.00 0.00 19 1017.2
20260502002137 17 52 0.0 0.0 0.00 0.00 0.00 19 1017.2
20260502001630 17 94 0.0 6.4 0.00 0.00 0.00 18 1017.2
20260502001124 17 71 0.0 6.4 0.00 0.00 0.00 18 1017.2
20260502000619 18 89 0.0 3.2 0.00 0.00 0.00 18 1017.1
20260502000112 18 323 0.0 4.8 0.00 0.00 0.00 17 1016.9
20260501235100 18 320 1.6 6.4 0.00 0.00 0.00 16 1016.9
20260501234554 18 305 0.0 6.4 0.00 0.00 0.00 16 1017.1
20260501233542 18 333 0.0 9.7 0.00 0.00 0.00 16 1017.1
20260501232531 18 323 0.0 8.0 0.00 0.00 0.00 17 1016.9
20260501232024 17 316 1.6 9.7 0.00 0.00 0.00 16 1017.1
20260501231012 18 80 1.6 9.7 0.00 0.00 0.00 16 1017.1
20260501230506 18 59 1.6 12.9 0.00 0.00 0.00 16 1016.9
20260501230000 18 38 1.6 12.9 0.00 0.00 0.00 16 1016.8
20260501225454 18 61 1.6 9.7 0.00 0.00 0.00 16 1016.9
20260501224949 18 329 1.6 9.7 0.00 0.00 0.00 15 1016.9
20260501223937 18 0 1.6 12.9 0.00 0.00 0.00 16 1017.1
20260501223430 18 0 1.6 14.5 0.00 0.00 0.00 15 1017.2
20260501222924 18 315 0.0 14.5 0.00 0.00 0.00 16 1016.9
20260501222418 18 327 0.0 6.4 0.00 0.00 0.00 16 1017.2
20260501221913 18 319 0.0 8.0 0.00 0.00 0.00 16 1017.2
20260501221406 18 70 0.0 8.0 0.00 0.00 0.00 17 1017.3
20260501220901 18 134 0.0 4.8 0.00 0.00 0.00 17 1017.2
20260501220354 18 90 0.0 4.8 0.00 0.00 0.00 16 1017.2
20260501215849 17 81 0.0 0.0 0.00 0.00 0.00 17 1017.4
20260501214837 18 342 0.0 3.2 0.00 0.00 0.00 16 1017.6
20260501212813 19 119 0.0 0.0 0.00 0.00 0.00 16 1017.9
20260501212306 18 343 0.0 0.0 0.00 0.00 0.00 19 1017.9
20260501211800 18 343 0.0 0.0 0.00 0.00 0.00 19 1018.0
20260501210243 17 349 0.0 4.8 0.00 0.00 0.00 18 1018.2
20260501205737 17 350 0.0 3.2 0.00 0.00 0.00 19 1018.3
20260501205232 17 96 0.0 8.0 0.00 0.00 0.00 19 1018.3
20260501204725 17 338 0.0 8.0 0.00 0.00 0.00 19 1018.2
20260501204220 17 54 0.0 0.0 0.00 0.00 0.00 20 1018.2
20260501203713 17 67 0.0 1.6 0.00 0.00 0.00 21 1018.3
20260501203208 17 59 0.0 3.2 0.00 0.00 0.00 21 1018.3
20260501202700 17 5 0.0 3.2 0.00 0.00 0.00 22 1018.5
20260501195643 16 72 0.0 0.0 0.00 0.00 0.00 22 1018.6
20260501195144 16 243 0.0 0.0 0.00 0.00 0.00 23 1018.6
20260501194645 16 234 0.0 1.6 0.00 0.00 0.00 23 1018.6
20260501194143 16 225 0.0 1.6 0.00 0.00 0.00 22 1018.6
20260501193644 17 221 0.0 1.6 0.00 0.00 0.00 23 1018.6
20260501193143 16 235 0.0 1.6 0.00 0.00 0.00 26 1018.6
20260501192145 16 351 0.0 1.6 0.00 0.00 0.00 23 1018.7
20260501191643 15 0 0.0 4.8 0.00 0.00 0.00 23 1018.7
20260501190643 16 351 0.0 0.0 0.00 0.00 0.00 26 1018.8
20260501190143 15 339 0.0 1.6 0.00 0.00 0.00 26 1018.8
20260501185643 15 339 0.0 3.2 0.00 0.00 0.00 27 1018.8
20260501185143 15 355 0.0 3.2 0.00 0.00 0.00 26 1018.8
20260501184644 15 309 0.0 1.6 0.00 0.00 0.00 27 1018.8
20260501184144 15 9 0.0 0.0 0.00 0.00 0.00 28 1018.8
20260501183643 15 5 0.0 1.6 0.00 0.00 0.00 28 1018.9
20260501183143 15 0 0.0 1.6 0.00 0.00 0.00 27 1018.9
20260501182644 15 5 0.0 1.6 0.00 0.00 0.00 28 1019.0
20260501182143 15 304 0.0 1.6 0.00 0.00 0.00 29 1019.0
20260501181644 14 48 0.0 1.6 0.00 0.00 0.00 30 1019.0
20260501181143 14 331 0.0 0.0 0.00 0.00 0.00 32 1019.2
20260501180644 14 331 0.0 0.0 0.00 0.00 0.00 31 1019.3